Home > Weather > Borken > Past weeks

Flag for Germany Past Weather in Borken, North Rhine-Westphalia, Germany — Yesterday and Last 2 Weeks

Now
72 °F

Overcast.


Feels Like: 76 °F
Forecast: 57 / 70 °F
Wind: 5 mph from East

Location: Twenthe

Current Time: May 28, 2016 at 6:10:41 PM

Latest Report: May 28, 2016 at 5:00 PM


Visibility: 13 mi

Pressure: 29.88 "Hg

Humidity: 60%

Dew Point: 57 °F

Location of BorkenLocation

Past Weather in Borken — Graph

°F

Borken Temperature Yesterday

Maximum temperature yesterday: 66 °F (at 7:00 PM)
Minimum temperature yesterday: 51 °F (at 4:00 AM)
Average temperature yesterday: 58 °F

High & Low Weather Summary for the Past Weeks

 TemperatureHumidityPressure
High74 °F (May 21, 5:00 PM)100% (May 23, 5:00 AM)30.12 "Hg (May 23, 5:00 AM)
Low35 °F (May 16, 6:00 AM)38% (May 13, 5:00 PM)29.67 "Hg (May 13, 5:00 PM)
Average55 °F80%29.94 "Hg
* Reported May 13 5:00 PM — May 28 5:00 PM, Borken, Weather by CustomWeather, © 2016

Note: Actual official high and low records may vary slightly from our data, if they occured in-between our weather recording intervals... More about our weather records

Advertising

Borken Weather History for the Previous 24 Hours

Scroll right to see more
 ConditionsComfort  
Time TempWeatherWind HumidityBarometerVisibility
5:00 PM
Sat, May 28
72 °FOvercast.5 mph60%29.88 "Hg12 mi
4:00 PM73 °FOvercast.2 mph57%29.89 "Hg12 mi
3:00 PM72 °FPartly sunny.3 mph60%29.90 "Hg8 mi
2:00 PM71 °FOvercast.3 mph63%29.92 "Hg7 mi
1:00 PM70 °FOvercast.2 mph71%29.93 "Hg6 mi
12:00 PM67 °FOvercast.3 mph73%29.94 "Hg6 mi
11:00 AM66 °FFog.3 mph80%29.95 "Hg5 mi
10:00 AM63 °FFog.2 mph85%29.96 "Hg4 mi
9:00 AM60 °FFog.3 mph90%29.96 "Hg3 mi
8:00 AM59 °FOvercast.1 mph92%29.97 "Hg3 mi
7:00 AM57 °FOvercast.1 mph95%29.96 "Hg2 mi
6:00 AM56 °FOvercast.2 mph98%29.97 "Hg2 mi
5:00 AM55 °FOvercast.1 mph98%29.97 "Hg2 mi
4:00 AM56 °FOvercast.2 mph98%29.97 "Hg2 mi
3:00 AM54 °FOvercast.2 mph98%29.97 "Hg1 mi
2:00 AM57 °FOvercast.2 mph95%29.98 "Hg2 mi
1:00 AM57 °FOvercast.2 mph94%29.99 "Hg3 mi
12:00 AM58 °FFog.2 mph88%29.99 "Hg5 mi
11:00 PM
Fri, May 27
60 °FOvercast.2 mph84%30.01 "Hg5 mi
10:00 PM62 °FOvercast.2 mph79%30.01 "Hg5 mi
9:00 PM63 °FOvercast.2 mph75%30.00 "Hg5 mi
8:00 PM64 °FOvercast.5 mph72%30.01 "Hg6 mi
7:00 PM66 °FOvercast.5 mph75%30.00 "Hg5 mi
6:00 PM64 °FOvercast.5 mph79%30.01 "Hg4 mi
Weather by CustomWeather, © 2016

See weather overviewHow to use our weather pages